CW5306 Weather Reports


Display with metric or nautical units.
time (UTC)temp
F
wind
direction
speed
MPH
gust
MPH
rain 1hr
in
rain 24hr
in
rain mn
in
humidity
%
barometer
mb
20260906071258 78 102 4.0 11.0 0.00 0.18 0.18 84 1012.1
20260906070528 78 122 6.0 13.0 0.00 0.18 0.18 84 1012.2
20260906070028 78 89 6.0 16.0 0.00 0.18 0.18 84 1012.0
20260906065527 78 106 3.0 16.0 0.00 0.18 0.18 85 1011.9
20260906065027 78 98 8.0 16.0 0.00 0.18 0.18 85 1011.9
20260906064528 78 88 6.0 16.0 0.00 0.18 0.18 85 1011.8
20260906064028 78 103 3.0 13.0 0.00 0.18 0.18 85 1011.9
20260906063759 77 106 6.0 15.0 0.00 0.18 0.18 85 1011.8
20260906063028 77 73 7.0 15.0 0.00 0.18 0.18 85 1011.8
20260906062527 77 67 6.0 17.0 0.00 0.18 0.18 85 1011.8
20260906062028 77 103 11.0 17.0 0.00 0.18 0.18 85 1011.6
20260906061529 77 70 6.0 15.0 0.00 0.18 0.18 86 1011.4
20260906061049 77 101 8.0 15.0 0.00 0.18 0.18 85 1011.3
20260906060527 77 49 4.0 17.0 0.00 0.18 0.18 84 1011.3
20260906060027 77 54 7.0 17.0 0.00 0.18 0.18 83 1011.3
20260906055533 77 105 8.0 14.0 0.00 0.18 0.18 83 1011.1
20260906055527 77 93 9.0 14.0 0.00 0.18 0.18 83 1011.6
20260906054528 77 135 7.0 14.0 0.00 0.18 0.18 83 1011.3
20260906054029 77 115 9.0 14.0 0.00 0.18 0.18 83 1011.4
20260906053527 77 128 7.0 15.0 0.00 0.18 0.18 83 1011.0
20260906053028 77 88 7.0 15.0 0.00 0.18 0.18 82 1011.2
20260906052528 77 94 3.0 15.0 0.00 0.18 0.18 82 1010.7
20260906052027 77 112 6.0 11.0 0.00 0.18 0.18 81 1011.0
20260906051527 77 125 3.0 10.0 0.00 0.18 0.18 81 1010.9
20260906051027 77 128 4.0 15.0 0.00 0.18 0.18 81 1010.8
20260906050527 77 101 8.0 15.0 0.00 0.18 0.18 81 1010.8
20260906050029 77 109 9.0 17.0 0.00 0.18 0.18 83 1011.0
20260906045529 77 102 10.0 17.0 0.00 0.18 0.18 84 1011.1
20260906045027 77 142 5.0 16.0 0.00 0.18 0.18 84 1011.1
20260906044527 77 130 6.0 16.0 0.00 0.18 0.18 84 1011.0
20260906044028 77 125 9.0 14.0 0.00 0.18 0.18 84 1011.0
20260906043527 77 106 11.0 16.0 0.00 0.18 0.18 83 1010.7
20260906043027 77 137 4.0 16.0 0.00 0.18 0.18 83 1010.6
20260906042529 77 91 9.0 13.0 0.00 0.18 0.18 84 1010.6
20260906042258 77 88 5.0 13.0 0.00 0.18 0.18 84 1010.9
20260906041528 77 147 5.0 14.0 0.00 0.18 0.18 84 1010.4
20260906041259 77 129 4.0 14.0 0.00 0.18 0.18 84 1010.6
20260906040528 77 119 6.0 15.0 0.00 0.18 0.18 85 1010.5
20260906040027 77 125 5.0 16.0 0.00 0.18 0.18 85 1010.5
20260906035527 77 92 4.0 16.0 0.00 0.18 0.18 85 1010.6
20260906035028 77 84 6.0 17.0 0.00 0.18 0.18 86 1010.6
20260906034528 77 120 4.0 17.0 0.00 0.18 0.18 85 1010.2
20260906034029 77 98 9.0 16.0 0.00 0.18 0.18 86 1010.3
20260906033529 76 101 6.0 20.0 0.01 0.18 0.18 86 1010.4
20260906033016 76 124 8.0 20.0 0.02 0.18 0.18 87 1010.3
20260906032516 76 98 4.0 20.0 0.02 0.18 0.18 88 1010.3
20260906032022 76 103 5.0 15.0 0.05 0.18 0.18 89 1010.2
20260906032015 76 86 6.0 20.0 0.05 0.18 0.18 89 1010.3
20260906031015 76 50 4.0 17.0 0.05 0.18 0.18 89 1010.3
20260906030515 76 101 6.0 21.0 0.05 0.18 0.18 89 1010.2
20260906030016 76 70 8.0 21.0 0.06 0.18 0.18 89 1010.2
20260906025748 76 99 7.0 16.0 0.06 0.18 0.18 90 1010.2
20260906025246 76 101 6.0 11.0 0.06 0.18 0.18 90 1010.1
20260906024748 75 76 5.0 14.0 0.05 0.17 0.18 90 1010.1
20260906024016 75 81 7.0 15.0 0.05 0.17 0.17 89 1010.3
20260906023515 75 92 10.0 16.0 0.04 0.17 0.17 89 1010.2
20260906023015 75 109 9.0 16.0 0.04 0.16 0.16 89 1010.4
20260906022503 75 169 7.0 11.0 0.03 0.15 0.15 88 1010.5
20260906022003 76 132 6.0 10.0 0.01 0.13 0.14 89 1010.6
20260906021503 76 134 4.0 11.0 0.03 0.13 0.13 88 1010.7
20260906021234 76 88 6.0 16.0 0.07 0.13 0.13 88 1010.8
20260906020504 76 121 5.0 19.0 0.09 0.12 0.12 88 1010.8
20260906020004 76 110 9.0 19.0 0.09 0.12 0.12 87 1010.7
20260906015742 77 103 11.0 20.0 0.09 0.12 0.12 88 1010.5
20260906015223 77 89 11.0 20.0 0.09 0.12 0.12 88 1010.4
20260906014439 77 28 7.0 15.0 0.09 0.12 0.12 89 1010.6
20260906013939 77 65 6.0 13.0 0.09 0.12 0.12 89 1010.4
20260906013444 76 86 0.0 13.0 0.09 0.12 0.12 89 1010.5
20260906012940 76 47 10.0 13.0 0.09 0.12 0.12 89 1010.5
20260906012441 76 130 3.0 13.0 0.09 0.12 0.12 88 1010.5
20260906011940 76 114 4.0 14.0 0.09 0.12 0.12 87 1010.7
20260906011440 77 99 11.0 14.0 0.07 0.10 0.10 86 1010.5
20260906010940 78 132 6.0 14.0 0.01 0.04 0.05 84 1010.7
20260906010440 78 123 4.0 14.0 0.00 0.03 0.03 83 1010.3
20260906005939 78 156 3.0 13.0 0.00 0.03 0.03 81 1010.7
20260906005439 79 102 4.0 13.0 0.00 0.03 0.03 80 1010.7
20260906004940 79 144 9.0 11.0 0.00 0.03 0.03 80 1010.6
20260906004441 79 194 8.0 14.0 0.00 0.03 0.03 80 1010.5
20260906004210 79 129 6.0 14.0 0.00 0.03 0.03 80 1010.6
20260906003441 79 114 5.0 15.0 0.00 0.03 0.03 80 1011.0
20260906002940 79 110 6.0 19.0 0.00 0.03 0.03 80 1010.8
20260906002441 79 112 9.0 19.0 0.00 0.03 0.03 78 1011.1
20260906001939 79 92 12.0 20.0 0.00 0.03 0.03 78 1010.6
20260906001710 80 89 8.0 20.0 0.00 0.03 0.03 77 1010.8
20260906001210 81 107 10.0 17.0 0.00 0.03 0.03 78 1010.8
20260906000441 81 71 10.0 17.0 0.00 0.03 0.03 79 1010.8
20260905235939 81 112 12.0 19.0 0.00 0.03 0.03 79 1011.0
20260905235439 81 52 7.0 20.0 0.00 0.03 0.03 79 1011.1
20260905234940 81 124 13.0 20.0 0.00 0.03 0.03 79 1011.0
20260905234440 81 80 9.0 20.0 0.00 0.03 0.03 79 1011.0
20260905233941 81 105 10.0 20.0 0.00 0.03 0.03 79 1011.1
20260905233445 81 54 10.0 17.0 0.00 0.03 0.03 79 1011.1
20260905233439 81 64 12.0 20.0 0.00 0.03 0.03 77 1011.2
20260905232439 81 85 9.0 21.0 0.00 0.03 0.03 79 1011.2
20260905231940 80 98 5.0 21.0 0.01 0.03 0.03 79 1011.3
20260905231441 80 89 9.0 23.0 0.01 0.03 0.03 80 1011.4
20260905230941 80 70 8.0 23.0 0.01 0.03 0.03 79 1011.4
20260905230439 80 106 11.0 19.0 0.01 0.03 0.03 79 1011.3
20260905230210 80 31 9.0 17.0 0.02 0.03 0.03 80 1011.5
20260905225439 80 93 8.0 17.0 0.02 0.03 0.03 81 1011.6
20260905225210 80 109 9.0 19.0 0.02 0.03 0.03 82 1011.6
20260905224440 80 47 7.0 19.0 0.02 0.03 0.03 82 1011.5
20260905223942 79 69 9.0 15.0 0.02 0.03 0.03 85 1011.4
20260905223447 78 54 6.0 15.0 0.02 0.03 0.03 86 1011.8
20260905223441 79 50 9.0 14.0 0.02 0.03 0.03 88 1011.6
20260905222710 78 75 6.0 19.0 0.02 0.03 0.03 87 1011.9
20260905221940 78 88 9.0 21.0 0.02 0.02 0.02 86 1011.8
20260905221439 78 57 5.0 23.0 0.02 0.02 0.02 86 1012.1
20260905220940 79 75 11.0 23.0 0.02 0.02 0.02 85 1012.0
20260905220440 80 69 4.0 16.0 0.01 0.02 0.02 83 1012.0
20260905220210 81 90 10.0 17.0 0.00 0.01 0.01 81 1012.2
20260905215440 81 45 9.0 19.0 0.00 0.01 0.01 80 1012.1
20260905214939 81 103 13.0 19.0 0.00 0.01 0.01 78 1012.1
20260905214711 81 63 8.0 21.0 0.00 0.01 0.01 78 1012.1
20260905213939 82 39 9.0 21.0 0.00 0.01 0.01 77 1012.3
20260905213441 82 80 9.0 17.0 0.00 0.01 0.01 79 1012.1
20260905212945 81 88 5.0 19.0 0.00 0.01 0.01 78 1012.2
20260905212439 82 30 11.0 19.0 0.00 0.01 0.01 77 1012.3
20260905212211 82 101 6.0 17.0 0.00 0.01 0.01 77 1012.5
20260905211439 83 85 6.0 17.0 0.00 0.01 0.01 75 1012.3
20260905210940 83 106 8.0 17.0 0.00 0.01 0.01 76 1012.6
20260905210440 82 66 9.0 21.0 0.00 0.01 0.01 75 1012.3
20260905205941 82 56 11.0 21.0 0.00 0.01 0.01 77 1012.4
20260905205439 82 117 11.0 17.0 0.00 0.01 0.01 76 1012.3
20260905204940 82 53 11.0 19.0 0.00 0.01 0.01 75 1012.4
20260905204439 82 95 6.0 19.0 0.00 0.01 0.01 78 1012.3
20260905204210 82 83 7.0 17.0 0.00 0.01 0.01 77 1012.5
20260905203711 82 65 9.0 17.0 0.00 0.01 0.01 76 1012.6
20260905203210 82 136 9.0 17.0 0.00 0.01 0.01 76 1012.4
20260905202440 82 88 6.0 19.0 0.00 0.01 0.01 77 1012.4
20260905201940 81 63 7.0 19.0 0.00 0.01 0.01 77 1012.5
20260905201440 81 64 9.0 16.0 0.00 0.01 0.01 77 1012.5
20260905200940 81 84 10.0 16.0 0.00 0.01 0.01 77 1012.1
20260905200428 81 57 14.0 17.0 0.00 0.01 0.01 79 1012.5
20260905195929 80 83 9.0 17.0 0.00 0.01 0.01 81 1012.4
20260905195428 79 60 10.0 25.0 0.00 0.01 0.01 80 1012.5
20260905194928 79 63 5.0 25.0 0.00 0.01 0.01 80 1012.4
20260905194429 80 84 14.0 24.0 0.00 0.01 0.01 80 1012.4
20260905193927 80 60 13.0 21.0 0.00 0.01 0.01 80 1012.4
20260905193428 81 23 9.0 20.0 0.00 0.01 0.01 79 1012.6
20260905193148 81 58 13.0 20.0 0.00 0.01 0.01 77 1012.2
20260905192416 81 111 11.0 20.0 0.00 0.01 0.01 77 1012.3
20260905191916 80 39 7.0 23.0 0.00 0.01 0.01 77 1012.5
20260905191647 80 77 12.0 23.0 0.00 0.01 0.01 77 1012.2
20260905190916 80 87 6.0 21.0 0.00 0.01 0.01 78 1012.3
20260905190415 80 39 11.0 21.0 0.00 0.01 0.01 78 1012.3
20260905185903 80 64 8.0 21.0 0.00 0.01 0.01 78 1012.1
20260905185404 80 87 13.0 21.0 0.00 0.01 0.01 78 1012.0
20260905185135 80 54 12.0 21.0 0.00 0.01 0.01 78 1012.0
20260905184404 80 87 10.0 20.0 0.00 0.01 0.01 78 1011.8
20260905183904 79 89 13.0 16.0 0.00 0.01 0.01 80 1011.9
20260905183404 79 102 7.0 13.0 0.00 0.01 0.01 79 1011.8
20260905182903 80 127 7.0 16.0 0.00 0.01 0.01 78 1012.0
20260905182352 80 53 6.0 19.0 0.00 0.01 0.01 78 1011.8
20260905181853 79 97 9.0 19.0 0.00 0.01 0.01 77 1011.8
20260905181339 79 26 6.0 17.0 0.00 0.01 0.01 78 1011.8
20260905181110 80 122 8.0 16.0 0.00 0.01 0.01 77 1011.8
20260905180340 79 105 8.0 16.0 0.00 0.01 0.01 78 1011.7
20260905180111 79 84 4.0 16.0 0.00 0.01 0.01 78 1011.7
20260905175340 79 92 4.0 15.0 0.00 0.01 0.01 80 1011.5
20260905175110 79 82 8.0 16.0 0.00 0.01 0.01 80 1011.8
20260905174340 78 107 7.0 16.0 0.00 0.01 0.01 82 1011.5
20260905174110 78 139 7.0 15.0 0.00 0.01 0.01 81 1011.6
20260905173340 78 69 11.0 20.0 0.00 0.01 0.01 81 1011.4
20260905172842 78 79 9.0 20.0 0.00 0.01 0.01 82 1011.4
20260905172340 78 58 11.0 16.0 0.00 0.01 0.01 81 1011.2
20260905171840 78 66 8.0 16.0 0.00 0.01 0.01 81 1011.5
20260905171345 78 90 8.0 16.0 0.00 0.01 0.01 80 1011.4
20260905171340 78 100 8.0 15.0 0.00 0.01 0.01 81 1011.2
20260905170610 78 74 9.0 16.0 0.00 0.01 0.01 79 1011.5
20260905165839 78 114 4.0 17.0 0.00 0.01 0.01 78 1011.3
20260905165340 78 127 9.0 17.0 0.00 0.01 0.01 80 1011.3
20260905164839 78 70 10.0 16.0 0.00 0.01 0.01 81 1011.1
20260905164625 78 80 7.0 16.0 0.00 0.01 0.01 81 1011.1
20260905164111 77 113 8.0 16.0 0.00 0.01 0.01 82 1011.0
20260905163339 77 81 6.0 21.0 0.00 0.01 0.01 81 1011.0
20260905162839 77 91 10.0 21.0 0.00 0.01 0.01 81 1011.0
20260905162340 77 66 9.0 17.0 0.00 0.01 0.01 80 1011.0
20260905161840 77 105 5.0 15.0 0.00 0.01 0.01 81 1011.0
20260905161340 76 81 8.0 15.0 0.00 0.01 0.01 81 1010.9
20260905160840 76 89 4.0 16.0 0.00 0.01 0.01 82 1011.1
20260905160339 76 116 11.0 16.0 0.00 0.01 0.01 83 1010.8
20260905155840 76 86 10.0 14.0 0.00 0.01 0.01 83 1010.9
20260905155340 76 56 3.0 14.0 0.00 0.01 0.01 83 1011.0
20260905154840 76 93 2.0 14.0 0.00 0.01 0.01 83 1011.2
20260905154339 76 132 5.0 15.0 0.00 0.02 0.01 83 1010.9
20260905154111 76 102 3.0 15.0 0.00 0.02 0.01 83 1011.0
20260905153341 77 98 9.0 14.0 0.00 0.02 0.01 82 1011.1
20260905152839 77 100 9.0 14.0 0.00 0.02 0.01 83 1011.3
20260905152341 77 83 7.0 13.0 0.00 0.02 0.01 82 1011.2
20260905151840 77 108 6.0 14.0 0.00 0.02 0.01 82 1011.2
20260905151611 76 32 9.0 14.0 0.00 0.02 0.01 81 1010.7
20260905150842 76 110 5.0 15.0 0.00 0.02 0.01 81 1010.9
20260905150611 76 85 6.0 15.0 0.00 0.02 0.01 81 1011.0
20260905150117 76 115 4.0 16.0 0.00 0.02 0.01 82 1011.0
20260905145840 76 105 6.0 16.0 0.00 0.02 0.01 81 1011.0
20260905144839 76 49 11.0 16.0 0.00 0.02 0.01 82 1011.1
20260905144340 76 94 12.0 19.0 0.01 0.02 0.01 82 1010.9
20260905143841 76 74 11.0 19.0 0.01 0.02 0.01 82 1010.9
20260905143340 76 108 6.0 17.0 0.01 0.02 0.01 82 1010.9
20260905142845 76 58 12.0 20.0 0.01 0.02 0.01 81 1011.2
20260905142839 76 122 6.0 20.0 0.01 0.02 0.01 82 1011.0
20260905141840 76 78 11.0 19.0 0.01 0.02 0.01 81 1011.0
20260905141611 76 67 4.0 20.0 0.01 0.02 0.01 82 1011.1
20260905140840 76 102 7.0 20.0 0.01 0.02 0.01 81 1011.0
20260905140340 76 102 8.0 20.0 0.01 0.02 0.01 81 1010.9
20260905140110 76 94 7.0 16.0 0.01 0.02 0.01 82 1011.1
20260905135610 76 84 9.0 16.0 0.01 0.02 0.01 83 1010.9
20260905134841 76 95 6.0 19.0 0.01 0.02 0.01 86 1011.0
20260905134340 76 91 10.0 21.0 0.00 0.02 0.00 84 1011.1
20260905134111 76 59 6.0 21.0 0.00 0.02 0.00 84 1011.2
20260905133341 76 72 4.0 17.0 0.00 0.02 0.00 84 1011.3
20260905132840 76 58 6.0 19.0 0.00 0.02 0.00 84 1011.3
20260905132339 76 68 8.0 20.0 0.00 0.02 0.00 84 1011.2
20260905132111 76 43 8.0 20.0 0.00 0.02 0.00 84 1011.1
20260905131340 76 64 7.0 17.0 0.00 0.02 0.00 85 1011.3
20260905130839 76 69 9.0 20.0 0.00 0.02 0.00 85 1011.4
20260905130327 76 55 6.0 20.0 0.00 0.02 0.00 83 1011.3
20260905125827 77 62 9.0 20.0 0.00 0.02 0.00 83 1011.4
20260905125559 77 91 11.0 19.0 0.00 0.02 0.00 81 1011.3
20260905125434 77 60 9.0 20.0 0.00 0.02 0.00 82 1011.2
20260905124558 77 67 10.0 20.0 0.00 0.02 0.00 81 1011.4
20260905123829 77 85 8.0 20.0 0.00 0.02 0.00 81 1011.4
20260905123327 77 40 10.0 20.0 0.00 0.02 0.00 80 1011.2
20260905122828 77 73 8.0 20.0 0.00 0.02 0.00 81 1011.3
20260905122328 77 63 10.0 20.0 0.00 0.02 0.00 81 1011.5
20260905122058 77 96 9.0 20.0 0.00 0.02 0.00 81 1011.3
20260905121604 77 61 5.0 21.0 0.00 0.02 0.00 80 1011.5
20260905121327 77 45 9.0 20.0 0.00 0.02 0.00 80 1011.5
20260905120315 77 54 12.0 19.0 0.00 0.03 0.00 79 1011.8
20260905115815 77 139 14.0 19.0 0.00 0.03 0.00 78 1011.8
20260905115306 77 100 6.0 17.0 0.00 0.03 0.00 79 1011.9
20260905114803 77 100 8.0 17.0 0.00 0.03 0.00 79 1012.0
20260905114303 77 66 3.0 20.0 0.00 0.03 0.00 78 1011.9
20260905113804 77 84 11.0 20.0 0.00 0.03 0.00 79 1012.2
20260905113304 77 52 4.0 19.0 0.00 0.03 0.00 81 1012.1
20260905112804 77 33 10.0 20.0 0.00 0.03 0.00 80 1012.2
20260905112535 77 91 5.0 20.0 0.00 0.03 0.00 80 1011.9
20260905112254 77 72 8.0 20.0 0.00 0.03 0.00 79 1012.1
20260905111253 77 101 13.0 20.0 0.00 0.03 0.00 79 1012.3
20260905110739 77 74 8.0 21.0 0.00 0.03 0.00 80 1012.0
20260905110240 77 71 9.0 23.0 0.00 0.03 0.00 79 1012.3
20260905105740 77 80 8.0 23.0 0.00 0.03 0.00 78 1012.3
20260905105240 77 98 10.0 20.0 0.00 0.03 0.00 78 1012.2
20260905104739 78 145 9.0 29.0 0.00 0.03 0.00 78 1012.4
20260905104241 77 72 13.0 29.0 0.00 0.03 0.00 77 1012.2
20260905103739 78 112 10.0 17.0 0.00 0.03 0.00 78 1012.6
20260905103242 78 91 13.0 20.0 0.00 0.03 0.00 79 1012.6
20260905102741 78 49 9.0 20.0 0.00 0.03 0.00 79 1012.5
20260905102240 78 73 13.0 16.0 0.00 0.03 0.00 79 1012.5
20260905101739 78 95 8.0 17.0 0.00 0.03 0.00 79 1012.5
20260905101239 78 109 11.0 19.0 0.00 0.03 0.00 79 1012.4
20260905100739 77 62 10.0 19.0 0.00 0.03 0.00 78 1012.7
20260905100239 77 59 14.0 19.0 0.00 0.03 0.00 79 1012.8
20260905100011 77 85 13.0 23.0 0.00 0.03 0.03 80 1012.8
20260905095239 77 99 9.0 23.0 0.00 0.03 0.03 79 1012.8
20260905094740 77 77 8.0 19.0 0.00 0.03 0.03 80 1012.9
20260905094240 77 77 8.0 23.0 0.00 0.03 0.03 80 1013.1
20260905093739 77 54 9.0 23.0 0.00 0.03 0.03 80 1013.0
20260905093239 77 79 13.0 23.0 0.00 0.03 0.03 78 1013.3
20260905093010 77 81 12.0 21.0 0.00 0.03 0.03 79 1013.1
20260905092239 78 19 10.0 21.0 0.00 0.03 0.03 80 1013.2
20260905091739 78 56 15.0 19.0 0.00 0.03 0.03 79 1013.1
20260905091511 78 120 6.0 19.0 0.00 0.03 0.03 79 1013.0
20260905090740 78 106 11.0 17.0 0.00 0.03 0.03 79 1013.2
20260905090241 78 73 8.0 23.0 0.00 0.03 0.03 78 1013.4
20260905085742 78 87 11.0 23.0 0.00 0.03 0.03 78 1013.5
20260905085512 78 89 8.0 17.0 0.00 0.03 0.03 79 1013.2
20260905084740 78 87 6.0 17.0 0.00 0.03 0.03 79 1013.4
20260905084241 78 20 10.0 17.0 0.00 0.03 0.03 78 1013.4
20260905083740 78 98 11.0 17.0 0.00 0.03 0.03 78 1013.3
20260905083240 78 125 11.0 17.0 0.00 0.03 0.03 78 1013.6
20260905082741 78 97 4.0 17.0 0.00 0.03 0.03 78 1013.6
20260905082240 78 98 7.0 19.0 0.00 0.03 0.03 78 1013.6
20260905082010 78 50 10.0 21.0 0.00 0.03 0.03 77 1013.5
20260905081255 78 106 8.0 21.0 0.00 0.03 0.03 78 1013.5
20260905080740 78 98 7.0 19.0 0.00 0.04 0.03 78 1013.7
20260905080240 78 78 8.0 20.0 0.00 0.04 0.03 78 1013.7
20260905075739 78 81 8.0 20.0 0.00 0.04 0.03 78 1013.8
20260905075238 78 81 3.0 20.0 0.00 0.04 0.03 79 1013.6
20260905074734 78 89 6.0 21.0 0.00 0.07 0.03 78 1013.6
20260905074728 78 107 7.0 20.0 0.00 0.04 0.03 79 1013.5
20260905073729 78 61 8.0 21.0 0.00 0.07 0.03 78 1013.8
20260905073227 78 120 12.0 20.0 0.00 0.07 0.03 78 1013.7
20260905072728 78 92 11.0 20.0 0.00 0.07 0.03 78 1013.6
20260905072228 78 77 10.0 20.0 0.00 0.07 0.03 78 1013.5
20260905071728 78 78 7.0 20.0 0.00 0.07 0.03 78 1013.6